Terug naar catalogus

QIANFAN-11

ActiefCommunicatiePO
NORAD 60389·PAYLOAD·🇨🇳 China

Gelanceerd Aug 6, 2024 vanaf Taiyuan Satellite Launch Center

Loading…

Volgende Passages (komende 24 uur)

TLE

VersSource: Space-Track

Epoch: Sep 14, 2026, 19:58 UTC

1 60389U 24140L   26257.83241858  .00000011  00000-0 -21131-5 0  9994
2 60389  88.9605 270.4423 0016236 116.5325 243.7493 13.51021054104398

Volg QIANFAN-11 in realtime met AllMySat

Download on the App Store